ONEWEB-0083 (45435 NORAD) Tracking and Keplerian Element Data

This shows tracking and keplerian element data for the satellite.

Feedback or suggestion? Click here.




ElementValue
Catalog45435
NameONEWEB-0083
Epoch Orbit175
Epoch Day184.91667824
Epoch Year2020
RAAN105.2082
Inclination87.5522
Eccentricity0.0022071
Argument of Perigee286.2083
Mean Anonmoly251.545
Mean Motion14.90209805
Decay Rate-0.00061467
L11 45435U 20020M 20184.91667824 -.00061467 00000-0 -63804-2 0 9992
L22 45435 87.5522 105.2082 0022071 286.2083 251.5450 14.90209805 1754

Live tracking and technical data element details for ONEWEB-0083 (NORAD 45435). ONEWEB-0083 can be tracked NOW for your location showing map with azimuth and elevation plus other details from your city location.

Track the satellite on the map from your city or location and see movement details for azimuth, elevation, latitude, longitude, range, height, and movement on the map or in text.







IsCatalogInMostPopularTable: catalog: 45435, numindb: 22
Update: records affected: 1



GetName: 45435 ONEWEB-0083

Hit Count: updated at: Fri, 03 Jul 2020 15:54:26 GMT